Location: New Frontier Mobile Home Park
(32.8448°N, 116.9675°W)
Time: 22:31:44
(UTC+00:00)

CSL-04 DEB - Pass Details

Date: 14 July 2020
Orbit: 545 x 629 km, 98.7° (Epoch: 05 August)

Event Time Altitude Azimuth Distance (km) Brightness Sun altitude
Exits shadow 11:26:27 15° 181° (S) 1,630 6.3 -15.6°
Maximum altitude 11:29:49 58° 258° (WSW) 685 4.5 -15.1°
Drops below altitude 10° 11:33:51 10° 338° (NNW) 1,889 7.2 -14.4°
Sets 11:36:01 0° 343° (NNW) 2,777 8.2 -14.0°
